Weather History for Paynesville, MN

Change the Weather History Date:

Wednesday, October 19, 2011

  Actual Average (KLJF) Record (KLJF)
Temperature  
Mean Temperature 37 °F -  
Max Temperature 44 °F 56 °F 84 °F (2000)
Min Temperature 30 °F 33 °F 14 °F (1972)
Degree Days  
Heating Degree Days 28    
Moisture  
Dew Point 29 °F    
Average Humidity 71    
Maximum Humidity 80    
Minimum Humidity 56    
Precipitation  
Precipitation 0.00 in - - ()
Sea Level Pressure  
Sea Level Pressure 30.12 in    
Wind  
Wind Speed 6 mph (NNW)    
Max Wind Speed 12 mph    
Max Gust Speed 16 mph    
Visibility 10 miles    
Events      
Averages and records for this station are not official NWS values.
T = Trace of Precipitation, MM = Missing Value Source: NWS Daily Summary

Daily Weather History Graph

Daily Weather History Graph

Search for Another Location

Airport:

Trip Planner

Search our weather history database for the weather conditions in past years. The results will help you decide how hot, cold, wet, or windy it might be!

Date:

Astronomy

Oct. 19, 2011 Rise Set
Actual Time 7:40 AM CDT 6:27 PM CDT
Civil Twilight 7:10 AM CDT 6:57 PM CDT
Nautical Twilight 6:35 AM CDT 7:31 PM CDT
Astronomical Twilight 6:01 AM CDT 8:05 PM CDT
Moon No Moon Rise 2:19 PM CDT (10/19)
Length of Visible Light 11h 46m
Length of Day
10h 47m
Waning Gibbous, 54% of the Moon is Illuminated
Oct 19
Waning Gibbous
Oct 19
Last Quarter
Oct 26
New
Nov 2
First Quarter
Nov 10
Full

Hourly Weather History & Observations

Time (CDT) Temp. Windchill Dew Point Humidity Pressure Visibility Wind Dir Wind Speed Gust Speed Precip Events Conditions
12:12 AM 30.6 °F 27.1 °F 24.4 °F 78% 30.10 in 10.0 mi NW 3.5 mph - N/A   Scattered Clouds
12:31 AM 30.9 °F 27.5 °F 24.6 °F 77% 30.09 in 10.0 mi NW 3.5 mph - N/A   Scattered Clouds
12:52 AM 31.6 °F 26.0 °F 25.2 °F 77% 30.09 in 10.0 mi NW 5.8 mph - N/A   Scattered Clouds
1:12 AM 32.0 °F 24.2 °F 25.3 °F 76% 30.09 in 10.0 mi NW 9.2 mph - N/A   Mostly Cloudy
1:32 AM 32.9 °F 28.5 °F 25.7 °F 75% 30.09 in 10.0 mi NW 4.6 mph - N/A   Overcast
1:52 AM 33.8 °F 27.7 °F 25.7 °F 72% 30.09 in 10.0 mi NNW 6.9 mph - N/A   Overcast
2:12 AM 34.2 °F 27.5 °F 25.5 °F 71% 30.09 in 10.0 mi NNW 8.1 mph - N/A   Overcast
2:32 AM 34.5 °F - 25.5 °F 70% 30.09 in 10.0 mi Calm Calm - N/A   Overcast
2:52 AM 34.3 °F 29.2 °F 26.1 °F 72% 30.09 in 10.0 mi NNW 5.8 mph - N/A   Overcast
3:12 AM 34.2 °F 30.0 °F 26.4 °F 73% 30.09 in 10.0 mi NNW 4.6 mph - N/A   Overcast
3:32 AM 34.2 °F 29.0 °F 26.6 °F 74% 30.09 in 10.0 mi NNW 5.8 mph - N/A   Overcast
3:52 AM 34.3 °F 31.4 °F 27.0 °F 74% 30.09 in 10.0 mi NNW 3.5 mph - N/A   Overcast
4:12 AM 34.7 °F 31.8 °F 27.0 °F 73% 30.09 in 10.0 mi NNW 3.5 mph - N/A   Overcast
4:32 AM 34.7 °F 29.6 °F 27.1 °F 74% 30.09 in 10.0 mi NNW 5.8 mph - N/A   Overcast
5:12 AM 35.1 °F 31.0 °F 27.1 °F 73% 30.10 in 10.0 mi NNW 4.6 mph - N/A   Overcast
5:32 AM 35.1 °F 29.3 °F 27.3 °F 73% 30.10 in 10.0 mi NNW 6.9 mph - N/A   Overcast
5:52 AM 35.1 °F 31.0 °F 27.5 °F 74% 30.11 in 10.0 mi NNW 4.6 mph - N/A   Overcast
6:32 AM 35.1 °F 29.3 °F 28.0 °F 76% 30.12 in 10.0 mi NNW 6.9 mph - N/A   Overcast
6:52 AM 35.1 °F 29.3 °F 28.4 °F 77% 30.12 in 10.0 mi NNW 6.9 mph - N/A   Overcast
7:12 AM 35.2 °F 29.5 °F 28.4 °F 76% 30.12 in 10.0 mi North 6.9 mph - N/A   Overcast
7:32 AM 35.6 °F 32.8 °F 28.8 °F 76% 30.13 in 10.0 mi North 3.5 mph - N/A   Overcast
7:52 AM 35.6 °F 31.7 °F 29.1 °F 77% 30.13 in 10.0 mi NNW 4.6 mph - N/A   Overcast
8:12 AM 35.6 °F 30.7 °F 29.3 °F 78% 30.14 in 10.0 mi North 5.8 mph - N/A   Overcast
8:32 AM 36.0 °F 32.1 °F 29.8 °F 78% 30.14 in 10.0 mi North 4.6 mph - N/A   Overcast
8:51 AM 36.5 °F 33.9 °F 30.2 °F 78% 30.15 in 10.0 mi North 3.5 mph - N/A   Overcast
9:12 AM 36.7 °F 30.5 °F 30.7 °F 79% 30.15 in 10.0 mi North 8.1 mph - N/A   Overcast
9:32 AM 37.0 °F 30.4 °F 30.9 °F 79% 30.15 in 10.0 mi North 9.2 mph - N/A   Overcast
9:52 AM 37.6 °F 30.5 °F 31.1 °F 77% 30.15 in 10.0 mi North 10.4 mph - N/A   Overcast
10:12 AM 38.3 °F 31.9 °F 31.1 °F 75% 30.15 in 10.0 mi North 9.2 mph - N/A   Overcast
10:32 AM 38.8 °F 32.6 °F 30.7 °F 73% 30.15 in 10.0 mi NNE 9.2 mph 16.1 mph N/A   Overcast
11:12 AM 40.1 °F 34.7 °F 31.1 °F 70% 30.15 in 10.0 mi NNE 8.1 mph - N/A   Overcast
11:52 AM 40.1 °F 34.7 °F 31.1 °F 70% 30.16 in 10.0 mi North 8.1 mph - N/A   Overcast
12:12 PM 40.8 °F 36.2 °F 31.1 °F 68% 30.16 in 10.0 mi North 6.9 mph - N/A   Overcast
12:32 PM 40.8 °F 35.6 °F 30.9 °F 68% 30.15 in 10.0 mi North 8.1 mph - N/A   Overcast
12:52 PM 41.0 °F 35.8 °F 31.1 °F 68% 30.15 in 10.0 mi North 8.1 mph - N/A   Overcast
1:12 PM 41.2 °F 35.0 °F 30.9 °F 67% 30.14 in 10.0 mi NNW 10.4 mph - N/A   Overcast
1:32 PM 41.9 °F 36.9 °F 31.3 °F 66% 30.14 in 10.0 mi North 8.1 mph - N/A   Overcast
1:52 PM 41.9 °F 37.5 °F 31.3 °F 66% 30.13 in 10.0 mi North 6.9 mph - N/A   Overcast
2:12 PM 42.8 °F 38.0 °F 31.6 °F 65% 30.13 in 10.0 mi NNW 8.1 mph - N/A   Overcast
2:52 PM 43.7 °F 39.1 °F 31.1 °F 61% 30.11 in 10.0 mi NNW 8.1 mph - N/A   Overcast
3:12 PM 43.7 °F 38.1 °F 31.1 °F 61% 30.11 in 10.0 mi North 10.4 mph 16.1 mph N/A   Overcast
3:52 PM 42.8 °F 37.5 °F 30.4 °F 62% 30.11 in 10.0 mi NNW 9.2 mph - N/A   Mostly Cloudy
4:12 PM 44.2 °F 38.4 °F 30.2 °F 58% 30.11 in 10.0 mi NNE 11.5 mph - N/A   Mostly Cloudy
4:32 PM 44.2 °F 39.2 °F 30.2 °F 58% 30.10 in 10.0 mi North 9.2 mph - N/A   Scattered Clouds
4:52 PM 44.6 °F 40.2 °F 29.7 °F 56% 30.10 in 10.0 mi North 8.1 mph 16.1 mph N/A   Scattered Clouds
5:12 PM 44.1 °F 39.0 °F 30.0 °F 58% 30.10 in 10.0 mi North 9.2 mph - N/A   Clear
5:32 PM 43.9 °F 39.3 °F 29.5 °F 57% 30.10 in 10.0 mi North 8.1 mph - N/A   Clear
5:52 PM 43.2 °F 38.4 °F 30.0 °F 60% 30.10 in 10.0 mi North 8.1 mph - N/A   Clear
6:12 PM 42.8 °F 40.1 °F 29.8 °F 60% 30.11 in 10.0 mi North 4.6 mph - N/A   Clear
6:32 PM 41.0 °F - 29.8 °F 64% 30.11 in 10.0 mi Calm Calm - N/A   Clear
6:52 PM 39.9 °F - 29.7 °F 67% 30.11 in 10.0 mi Calm Calm - N/A   Clear
7:12 PM 38.8 °F 36.5 °F 29.3 °F 69% 30.11 in 10.0 mi North 3.5 mph - N/A   Clear
7:32 PM 38.5 °F 36.1 °F 29.8 °F 71% 30.11 in 10.0 mi NNW 3.5 mph - N/A   Clear
7:52 PM 38.3 °F 34.8 °F 29.7 °F 71% 30.11 in 10.0 mi North 4.6 mph - N/A   Clear
8:12 PM 37.8 °F 34.2 °F 29.3 °F 72% 30.11 in 10.0 mi NNW 4.6 mph - N/A   Clear
8:32 PM 37.4 °F - 29.3 °F 73% 30.10 in 10.0 mi Calm Calm - N/A   Clear
8:51 PM 35.6 °F 31.7 °F 29.3 °F 78% 30.10 in 10.0 mi NW 4.6 mph - N/A   Clear
9:12 PM 35.6 °F 32.8 °F 29.7 °F 79% 30.10 in 10.0 mi NNW 3.5 mph - N/A   Clear
9:32 PM 35.4 °F 32.6 °F 29.7 °F 80% 30.11 in 10.0 mi NNE 3.5 mph - N/A   Clear
9:52 PM 34.3 °F - 29.7 °F 83% 30.10 in 10.0 mi Calm Calm - N/A   Clear
10:12 PM 33.3 °F - 29.3 °F 85% 30.10 in 10.0 mi Calm Calm - N/A   Clear
10:32 PM 33.1 °F 30.0 °F 29.1 °F 85% 30.10 in 10.0 mi North 3.5 mph - N/A   Clear
10:52 PM 33.8 °F 30.8 °F 29.3 °F 84% 30.10 in 10.0 mi North 3.5 mph - N/A   Clear
11:12 PM 33.3 °F 30.2 °F 29.3 °F 85% 30.09 in 10.0 mi North 3.5 mph - N/A   Clear
11:52 PM 33.3 °F 28.9 °F 29.3 °F 85% 30.09 in 10.0 mi North 4.6 mph - N/A   Clear